[[{"header":{"parameterUnit":"m.s-1","parameterCategory":1,"la1":30.2991,"la2":30.254,"lo1":-89.0895,"lo2":-89.0444,"dy":0.0017,"dx":0.0017,"nx":28,"ny":28,"refTime":"2023-09-16T21:00:00:Z","depth":0,"parameterNumber":2,"parameterNumberName":"U-component_of_WINDS"},"data":[0,0,0,0,0,0,0,0,0,0,0,0,0,0,0,0,0,0,0,0,0,0,0,0,0,0,0,0,0,0,0,0,0,0,0,0,0,0,0,0,0,0,0,0,0,0,0,0,0,0,0,0,0,0,0,0,0,0,-2.6336,-2.6336,0,-2.6361,-2.6362,-2.6362,-2.6308,-2.6306,-2.6304,-2.6303,-2.633,-2.6332,-2.6335,0,0,0,0,0,0,0,0,0,0,0,0,0,-2.6243,-2.6245,-2.6336,-2.6336,-2.6337,-2.6361,-2.6362,-2.6362,-2.6308,-2.6306,-2.6304,-2.6302,-2.6329,-2.6332,-2.6335,0,0,0,0,0,0,0,0,0,0,0,0,0,-2.6277,-2.6246,-2.6336,-2.6313,-2.6311,-2.6361,-2.6362,-2.6362,-2.6309,-2.6306,-2.6303,-2.6301,-2.6328,-2.6332,-2.6335,-2.6409,0,0,-2.6346,-2.6347,0,0,0,0,0,0,0,0,-2.6275,-2.6281,-2.6316,-2.6314,-2.6313,-2.6329,-2.6339,-2.6378,-2.6309,-2.631,-2.6303,-2.63,-2.6332,-2.6335,-2.6345,-2.6411,-2.6412,-2.6346,-2.6348,-2.635,-2.6351,0,0,0,0,0,0,0,-2.6273,-2.6279,-2.6346,-2.6316,-2.6314,-2.6302,-2.6304,-2.6346,-2.6335,-2.6309,-2.6306,-2.6309,-2.633,-2.6342,-2.6346,-2.6412,-2.6346,-2.6349,-2.6351,-2.6353,-2.6542,-2.6545,0,0,0,0,0,0,-2.6273,-2.6278,-2.6345,-2.6347,-2.6287,-2.6306,-2.6308,-2.6326,-2.6334,-2.6333,-2.6311,-2.6307,-2.6337,-2.6342,-2.6346,-2.6436,-2.635,-2.6353,-2.6355,-2.6539,-2.6543,-2.6546,0,0,0,0,0,0,-2.6272,-2.628,-2.6344,-2.6311,-2.6318,-2.631,-2.6331,-2.6328,-2.634,-2.6336,-2.6334,-2.6325,-2.6335,-2.6341,-2.6395,-2.6436,-2.6355,-2.6358,-2.6536,-2.654,-2.6544,-2.6614,0,0,0,0,0,0,-2.6269,-2.628,-2.6307,-2.6312,-2.632,-2.6392,-2.6334,-2.633,-2.6346,-2.634,-2.6349,-2.6348,-2.6334,-2.639,-2.6398,-2.6439,-2.6361,-2.6532,-2.6538,-2.6543,-2.6608,-2.6621,-2.6631,0,0,0,0,0,-2.6266,-2.6326,-2.6309,-2.6318,-2.6355,-2.6394,-2.6399,-2.6382,-2.6349,-2.6378,-2.6376,-2.6347,-2.643,-2.6396,-2.6405,-2.6448,-2.653,-2.6536,-2.6543,-2.6603,-2.6618,-2.6631,0,0,0,0,0,0,-2.6326,-2.6326,-2.6307,-2.637,-2.6383,-2.6385,-2.642,-2.6398,-2.642,-2.6413,-2.6391,-2.6393,-2.6452,-2.6454,-2.6416,-2.6521,-2.6474,-2.6483,-2.6517,-2.6531,-2.6543,-2.6542,-2.6364,0,0,0,0,0,-2.6346,-2.6378,-2.6376,-2.6432,-2.6439,-2.6429,-2.6445,-2.6431,-2.6443,-2.6448,-2.6449,-2.6463,-2.6492,-2.6511,-2.6538,-2.6608,-2.661,-2.6642,-2.6653,-2.6663,-2.6671,-2.6711,-2.6726,-2.6568,-2.6567,-2.6567,0,0,-2.6389,-2.6393,-2.6414,-2.6444,-2.6452,-2.6486,-2.6434,-2.6471,-2.6497,-2.6454,-2.6505,-2.6506,-2.652,-2.6583,-2.661,-2.6587,-2.6715,-2.6671,-2.6679,-2.6682,-2.6719,-2.6734,-2.6748,-2.6572,-2.6571,-2.657,0,0,-2.6485,-2.649,-2.6539,-2.6548,-2.656,-2.6553,-2.6565,-2.6571,-2.657,-2.6621,-2.659,-2.662,-2.667,-2.6681,-2.6694,-2.6795,-2.6771,-2.6804,-2.6864,-2.6903,-2.6916,-2.6927,-2.6965,-2.6979,-2.6812,-2.6812,-2.6812,0,-2.6537,-2.6587,-2.6566,-2.6607,-2.6622,-2.6584,-2.6634,-2.6643,-2.6664,-2.6676,-2.6649,-2.6712,-2.6718,-2.6784,-2.6809,-2.6819,-2.6833,-2.6804,-2.6915,-2.6926,-2.6936,-2.6973,-2.6987,-2.6816,-2.6816,-2.6816,-2.6815,0,-2.6651,-2.6686,-2.6723,-2.6745,-2.6764,-2.6809,-2.6796,-2.6817,-2.6801,-2.6797,-2.6851,-2.6856,-2.6884,-2.6898,-2.6883,-2.6963,-2.6949,-2.6919,-2.6872,-2.6956,-2.699,-2.7004,-2.6822,-2.6821,-2.682,-2.6819,0,0,-2.6786,-2.6796,-2.6811,-2.6821,-2.6832,-2.6859,-2.6903,-2.693,-2.695,-2.6966,-2.7003,-2.7046,-2.702,-2.7034,-2.7019,-2.7053,-2.7136,-2.702,-2.702,-2.7043,-2.7228,-2.7252,-2.7268,-2.7119,-2.7122,-2.7124,-2.7227,0,-2.6883,-2.6958,-2.6941,-2.7016,-2.7049,-2.7014,-2.7052,-2.7064,-2.7062,-2.709,-2.7087,-2.7119,-2.708,-2.7089,-2.7121,-2.712,-2.7173,-2.7111,-2.7156,-2.7158,-2.7156,-2.7285,-2.731,-2.7408,-2.724,-2.7242,-2.7244,0,-2.7006,-2.7027,-2.7105,-2.7113,-2.7126,-2.7161,-2.7186,-2.7213,-2.7226,-2.7222,-2.7238,-2.7217,-2.7262,-2.7213,-2.7275,-2.7234,-2.725,-2.7253,-2.7256,-2.7261,-2.7208,-2.7296,-2.7438,-2.7454,-2.7264,-2.7263,-2.7261,0,-2.71,-2.7148,-2.7201,-2.721,-2.722,-2.7246,-2.7251,-2.7262,-2.728,-2.7301,-2.7313,-2.7339,-2.7354,-2.7375,-2.7363,-2.7328,-2.7428,-2.7378,-2.7428,-2.7428,-2.7452,-2.7451,-2.7601,-2.7459,-2.7459,-2.7459,-2.7458,0,-2.7212,-2.7261,-2.7244,-2.7277,-2.7332,-2.7312,-2.7367,-2.7368,-2.7378,-2.7412,-2.7382,-2.7415,-2.7395,-2.7426,-2.7416,-2.7471,-2.7477,-2.7476,-2.7474,-2.748,-2.7481,-2.7493,-2.7487,-2.7462,-2.7462,-2.7461,-2.746,0,-2.7327,-2.7316,-2.7373,-2.7378,-2.738,-2.7421,-2.7425,-2.7457,-2.7452,-2.7495,-2.7504,-2.7497,-2.7532,-2.7521,-2.7558,-2.7552,-2.7622,-2.7609,-2.7618,-2.7615,-2.7667,-2.7663,-2.7831,-2.7854,-2.7696,-2.7697,-2.7698,0,-2.74,-2.7437,-2.7446,-2.7467,-2.7474,-2.7507,-2.7525,-2.7507,-2.7528,-2.7547,-2.7576,-2.7609,-2.7634,-2.7692,-2.7691,-2.772,-2.7709,-2.7766,-2.7714,-2.772,-2.7713,-2.7712,-2.7717,-2.7777,-2.7779,-2.7781,-2.7782,0,-2.7531,-2.7524,-2.7552,-2.7578,-2.7601,-2.7621,-2.7638,-2.7657,-2.764,-2.7665,-2.7701,-2.772,-2.7759,-2.7793,-2.7819,-2.7825,-2.7802,-2.7798,-2.7812,-2.782,-2.7825,-2.7826,-2.7649,-2.7795,-2.7794,-2.7793,-2.7792,-2.7791,-2.7629,-2.7661,-2.7673,-2.7706,-2.7717,-2.7734,-2.7764,-2.7763,-2.7793,-2.7823,-2.781,-2.7852,-2.7866,-2.7899,-2.7909,-2.7942,-2.792,-2.7939,-2.7945,-2.795,-2.7958,-2.7818,-2.7946,-2.7946,-2.7946,-2.7945,-2.7945,0,-2.7761,-2.7767,-2.7797,-2.7822,-2.7848,-2.7822,-2.784,-2.7864,-2.7901,-2.7915,-2.7941,-2.7983,-2.8015,-2.8017,-2.8048,-2.8074,-2.8064,-2.8083,-2.8082,-2.8084,-2.7974,-2.7961,-2.8091,-2.809,-2.809,-2.809,-2.809,-2.809,-2.7833,-2.7887,-2.7882,-2.7943,-2.7948,-2.7989,-2.8002,-2.8018,-2.8029,-2.8078,-2.8105,-2.8105,-2.8115,-2.8146,-2.8175,-2.8175,-2.8189,-2.8212,-2.8208,-2.8106,-2.8092,-2.8078,-2.8065,-2.8215,-2.8215,-2.8316,-2.8317,-2.8318]},{"header":{"parameterUnit":"m.s-1","parameterCategory":1,"la1":30.2991,"la2":30.254,"lo1":-89.0895,"lo2":-89.0444,"dy":0.0017,"dx":0.0017,"nx":28,"ny":28,"refTime":"2023-09-16T21:00:00:Z","depth":0,"parameterNumber":3,"parameterNumberName":"V-component_of_WINDS"},"data":[0,0,0,0,0,0,0,0,0,0,0,0,0,0,0,0,0,0,0,0,0,0,0,0,0,0,0,0,0,0,0,0,0,0,0,0,0,0,0,0,0,0,0,0,0,0,0,0,0,0,0,0,0,0,0,0,0,0,-2.3515,-2.3515,0,-2.3498,-2.3498,-2.3498,-2.3445,-2.3444,-2.3443,-2.3442,-2.3426,-2.3427,-2.3427,0,0,0,0,0,0,0,0,0,0,0,0,0,-2.3503,-2.3504,-2.3515,-2.3515,-2.3515,-2.3499,-2.3498,-2.3498,-2.3445,-2.3444,-2.3443,-2.3441,-2.3426,-2.3426,-2.3427,0,0,0,0,0,0,0,0,0,0,0,0,0,-2.35,-2.3504,-2.3516,-2.3487,-2.3484,-2.3499,-2.3498,-2.3498,-2.3446,-2.3444,-2.3442,-2.3441,-2.3425,-2.3426,-2.3427,-2.3469,0,0,-2.343,-2.3431,0,0,0,0,0,0,0,0,-2.35,-2.35,-2.3491,-2.3489,-2.3486,-2.3472,-2.3488,-2.3488,-2.3446,-2.346,-2.3442,-2.344,-2.3443,-2.3442,-2.3443,-2.3468,-2.3467,-2.3431,-2.3431,-2.3432,-2.3432,0,0,0,0,0,0,0,-2.35,-2.3501,-2.3509,-2.3491,-2.3488,-2.3475,-2.3473,-2.3488,-2.3462,-2.3459,-2.3455,-2.3454,-2.3441,-2.3442,-2.3442,-2.3467,-2.343,-2.3431,-2.3432,-2.3432,-2.3526,-2.3527,0,0,0,0,0,0,-2.3505,-2.3501,-2.3509,-2.3508,-2.3489,-2.3477,-2.3474,-2.3478,-2.3461,-2.3457,-2.3455,-2.3451,-2.3441,-2.3441,-2.3441,-2.3489,-2.3432,-2.3432,-2.3433,-2.3524,-2.3526,-2.3528,0,0,0,0,0,0,-2.3505,-2.3506,-2.351,-2.3504,-2.3503,-2.3479,-2.3484,-2.3479,-2.348,-2.3459,-2.3454,-2.3461,-2.344,-2.344,-2.3462,-2.3488,-2.3433,-2.3434,-2.3522,-2.3524,-2.3527,-2.3585,0,0,0,0,0,0,-2.3504,-2.3506,-2.3521,-2.3504,-2.3504,-2.3531,-2.3486,-2.348,-2.3482,-2.3476,-2.3463,-2.3459,-2.3439,-2.3461,-2.3463,-2.3488,-2.3435,-2.3519,-2.3523,-2.3526,-2.3581,-2.3589,-2.3597,0,0,0,0,0,-2.3504,-2.3539,-2.3522,-2.3524,-2.3522,-2.3533,-2.3532,-2.3508,-2.3484,-2.3499,-2.3485,-2.3459,-2.3485,-2.3464,-2.3466,-2.3492,-2.3517,-2.3522,-2.3526,-2.3577,-2.3588,-2.3597,0,0,0,0,0,0,-2.356,-2.3536,-2.3518,-2.3548,-2.3543,-2.3524,-2.3542,-2.352,-2.3522,-2.3517,-2.3486,-2.3484,-2.3511,-2.3503,-2.348,-2.3531,-2.3497,-2.3502,-2.3535,-2.3545,-2.3553,-2.3555,-2.3435,0,0,0,0,0,-2.3575,-2.3585,-2.3564,-2.3593,-2.3591,-2.3567,-2.3571,-2.3552,-2.3546,-2.3544,-2.3531,-2.3527,-2.3533,-2.3538,-2.3543,-2.3579,-2.3576,-2.3598,-2.3606,-2.3613,-2.3617,-2.3636,-2.3646,-2.3542,-2.3542,-2.3542,0,0,-2.3608,-2.3596,-2.3605,-2.3603,-2.3597,-2.3609,-2.3566,-2.358,-2.3588,-2.3546,-2.3566,-2.3557,-2.355,-2.3579,-2.3591,-2.3574,-2.3645,-2.3618,-2.3623,-2.3625,-2.3642,-2.3651,-2.366,-2.3545,-2.3544,-2.3544,0,0,-2.3674,-2.3665,-2.3688,-2.3683,-2.3674,-2.3658,-2.3663,-2.3648,-2.364,-2.366,-2.3629,-2.3638,-2.365,-2.3647,-2.3646,-2.371,-2.3686,-2.3712,-2.3755,-2.3774,-2.3782,-2.3789,-2.3813,-2.3821,-2.3717,-2.3717,-2.3717,0,-2.3716,-2.3731,-2.3703,-2.3719,-2.372,-2.3681,-2.3705,-2.3701,-2.3694,-2.3696,-2.3676,-2.3691,-2.3683,-2.3711,-2.3727,-2.3727,-2.3733,-2.3714,-2.3783,-2.379,-2.3796,-2.3818,-2.3827,-2.3721,-2.372,-2.372,-2.372,0,-2.3784,-2.3795,-2.3814,-2.3809,-2.3811,-2.3831,-2.3806,-2.3812,-2.3794,-2.378,-2.3801,-2.379,-2.3792,-2.3797,-2.3779,-2.3823,-2.3813,-2.3788,-2.3754,-2.381,-2.383,-2.3838,-2.3725,-2.3724,-2.3723,-2.3722,0,0,-2.3885,-2.3862,-2.387,-2.3867,-2.3854,-2.3863,-2.3881,-2.3882,-2.3889,-2.3885,-2.39,-2.3911,-2.3888,-2.3888,-2.3869,-2.3885,-2.3937,-2.3859,-2.3858,-2.3875,-2.3986,-2.4005,-2.4015,-2.3921,-2.3923,-2.3924,-2.3987,0,-2.3947,-2.3976,-2.3951,-2.3985,-2.3996,-2.3959,-2.3975,-2.3969,-2.3956,-2.3964,-2.395,-2.3958,-2.3928,-2.3927,-2.3942,-2.3928,-2.396,-2.3923,-2.3935,-2.3936,-2.3939,-2.4026,-2.4046,-2.4106,-2.3994,-2.3996,-2.3997,0,-2.4024,-2.4024,-2.4059,-2.4044,-2.4047,-2.4062,-2.4061,-2.4069,-2.4061,-2.4051,-2.4051,-2.4027,-2.4044,-2.4009,-2.4033,-2.4008,-2.4012,-2.4006,-2.4008,-2.4009,-2.3971,-2.403,-2.4124,-2.4134,-2.4009,-2.4008,-2.4007,0,-2.4096,-2.4104,-2.4126,-2.4124,-2.4107,-2.4118,-2.4111,-2.4102,-2.4105,-2.4105,-2.4106,-2.4108,-2.411,-2.4112,-2.409,-2.4066,-2.4116,-2.408,-2.4109,-2.411,-2.4122,-2.4122,-2.4219,-2.4123,-2.4123,-2.4123,-2.4123,0,-2.4169,-2.4192,-2.4158,-2.4171,-2.4196,-2.4167,-2.4193,-2.4182,-2.4174,-2.4186,-2.4154,-2.4166,-2.4135,-2.4144,-2.4126,-2.4149,-2.4149,-2.4142,-2.4138,-2.4146,-2.4147,-2.4148,-2.4144,-2.4125,-2.4125,-2.4124,-2.4124,0,-2.4253,-2.4231,-2.4253,-2.4234,-2.423,-2.4249,-2.4233,-2.4246,-2.4231,-2.4246,-2.4247,-2.4224,-2.4233,-2.421,-2.4215,-2.4204,-2.4237,-2.4225,-2.4239,-2.4236,-2.4267,-2.4265,-2.437,-2.4382,-2.4277,-2.4278,-2.4279,0,-2.4302,-2.4319,-2.4302,-2.4307,-2.4302,-2.431,-2.4313,-2.4285,-2.4289,-2.4282,-2.4295,-2.43,-2.4303,-2.4318,-2.4303,-2.4306,-2.4295,-2.4331,-2.4295,-2.4303,-2.4297,-2.4296,-2.4298,-2.4339,-2.4341,-2.4342,-2.4342,0,-2.4391,-2.4379,-2.4383,-2.4384,-2.4388,-2.4387,-2.4384,-2.4391,-2.4361,-2.4367,-2.4375,-2.4377,-2.4382,-2.4388,-2.4388,-2.4382,-2.4358,-2.4354,-2.4361,-2.437,-2.4378,-2.4375,-2.426,-2.4352,-2.4351,-2.435,-2.435,-2.4349,-2.4459,-2.4473,-2.4463,-2.4469,-2.4464,-2.4462,-2.4472,-2.4458,-2.4464,-2.4466,-2.4449,-2.4461,-2.4453,-2.445,-2.4447,-2.4456,-2.4439,-2.4449,-2.4452,-2.4455,-2.4461,-2.4376,-2.4455,-2.4455,-2.4455,-2.4455,-2.4454,0,-2.4547,-2.4539,-2.4545,-2.4542,-2.4547,-2.4522,-2.4518,-2.4524,-2.4534,-2.4529,-2.4532,-2.4542,-2.4547,-2.4532,-2.4535,-2.4546,-2.4535,-2.4548,-2.4547,-2.4546,-2.4475,-2.4469,-2.4556,-2.4556,-2.4556,-2.4556,-2.4556,-2.4556,-2.4594,-2.4615,-2.4602,-2.4621,-2.4612,-2.4623,-2.4623,-2.4621,-2.4616,-2.4628,-2.4633,-2.4622,-2.4612,-2.4615,-2.462,-2.4615,-2.4618,-2.4635,-2.4627,-2.4561,-2.4551,-2.4542,-2.4536,-2.4636,-2.4636,-2.4697,-2.4698,-2.4698]}]]